Location: *
(46.3500°N, 10.9000°E)
Time: 21:24:11
(UTC+00:00)

A-11 Canister half - Pass Details

Date: 24 April 2021
Orbit: 1526 x 1682 km, 47.3° (Epoch: 13 May)

Event Time Altitude Azimuth Distance (km) Brightness Sun altitude
Rises 13:53:37 0° 237° (WSW) 4,835 12.4 42.9°
Reaches altitude 10° 13:56:43 10° 235° (SW) 3,870 12.2 42.4°
Maximum altitude 14:06:35 71° 154° (SSE) 1,744 10.0 40.9°
Drops below altitude 10° 14:16:40 10° 73° (ENE) 3,949 10.8 39.4°
Sets 14:19:52 0° 72° (ENE) 4,939 11.2 38.9°
